Das Wetter in  D-61279 Heinzenberg / Taunus





Wetter Minimum- & Maximum-Werte im April 2017

Standort: Heinzenberg / Taunus - Höhe 297 m         8 24' 1" Ost 50 21' 51" Nord
(   3-stündige Aktualisierung    letzte Aktualisierung um 19:04 am 30.04.2017  )


Messgrösse

Minimum

Maximum

Durchschnitt

Temperatur West /
Luftfeuchte West
Anklicken für Monats-Diagramm

-4,6 C

06:56
20.04.2017

35 %

15:43
30.04.2017

25,2 C

17:03
09.04.2017

88 %

11:53
17.04.2017

Temp

8,2 C

Feuchte

64 %

Temperatur Ost /
Luftfeuchte Ost
Anklicken für Monats-Diagramm

-4,3 C

07:06
20.04.2017

--

--
--

25,6 C

17:03
09.04.2017

--

--
--

8,5 C

--

Luftdruck Anklicken für Monats-Diagramm

1003,9 hPa

06:05
25.04.2017

1037,4 hPa

07:51
20.04.2017

1019,5 hPa

Taupunkt

-7,9 C

06:16
20.04.2017

10,5 C

14:23
09.04.2017

1,5 C

Windchill
( gefühlte Temperatur )

-9,0 C

09:54
18.04.2017

25,2 C

17:03
09.04.2017

6,3 C

Windgeschwindigkeit /
Windrichtung
Anklicken für Monats-Diagramm

---

40,2 km/h / NW

14:32
29.04.2017

7,0 km/h
NW

Helligkeit /
Sonnenschein
Anklicken für Monats-Diagramm
Anklicken für Monats-Diagramm

Sonnenschein:

183:22 Stunden

Max: 12:40 Std am
30.04.2017

118 klux

13:47
11.04.2017

37 klux

Solarstrahlung Anklicken für Monats-Diagramm

---

807 W/m

13:47
11.04.2017

268 W/m

Regenmenge
    April 2017
Anklicken für Monats-Diagramm

Insgesamt 16,9 l/m

in 28:10 Stunden
an 9 Tagen

11,7 l/m

09:18
17.04.2017

Gesamtmenge

16,9 l/m

Regen-Tage
    April 2017
Anklicken für Monats-Diagramm

>   0 mm/Tag

>   2 mm/Tag

>   5 mm/Tag

> 10 mm/Tag

> 20 mm/Tag

9 Tage     
2 Tage     
  1 Tag     
  1 Tag     
0 Tage     

Eisige Tage April 2017 / 2016

Tmin ≤ -10C     

0 Tage

/

0 Tage

Eistage April 2017 / 2016

Tmax <     0C     

0 Tage

/

0 Tage

Frosttage April 2017 / 2016

Tmin ≤     0C     

7 Tage

/

7 Tage

Kalte Tage April 2017 / 2016

Tmax <   10C     

3 Tage

/

3 Tage

Warme Tage April 2017 / 2016

Tmax ≥   20C     

5 Tage

/

3 Tage

Sommertage April 2017 / 2016

Tmax ≥   25C     

  1 Tag

/

0 Tage

Heisse Tage April 2017 / 2016

Tmax ≥   30C     

0 Tage

/

0 Tage


Monatsdiagramm April 2017

Die Kurven zeigen den Durchschnittswert des jeweiligen Tages an


Wetter-Monatsübersicht April 2017
Datum
  Temperatur
   Luftdruck
   Wind
  Regen
   Luftfeuchte
   Helligkeit

Sonnen-
schein


Temp.

Min.
Temp.

Max.
Temp.


Luftdruck

Min.
Luftdruck

Max.
Luftdruck

-Geschw.
Haupt-Richtg.

Max.
Wind

Menge /
Dauer


Feuchte

Min.
Feuchte

Max.
Feuchte


Helligkeit

Max.
Helligkeit

1.
April
13,0 C7,1 C
07:20
22,3 C
16:05
1011,1 hPa1008,2 hPa
16:05
1013,0 hPa
04:00
5,0 km/h
NW
19,8 km/h
16:35  
---
62 %40 %
16:05
75 %
08:40
35,3 klux97,3 klux
14:15
5:10 Std 
2.
April
12,1 C6,1 C
07:41
18,6 C
17:50
1017,6 hPa1012,6 hPa
00:01
1023,0 hPa
23:57
1,5 km/h
NW
15,0 km/h
14:41  
---
67 %48 %
18:11
85 %
08:56
33,4 klux94,4 klux
13:21
4:35 Std 
3.
April
11,5 C3,6 C
07:52
20,6 C
16:12
1023,8 hPa1021,1 hPa
18:12
1026,0 hPa
07:52
1,5 km/h
SO
14,0 km/h
14:32  
---
63 %43 %
16:12
82 %
08:52
41,1 klux97,7 klux
13:12
7:30 Std 
4.
April
9,5 C0,5 C
07:18
20,1 C
15:48
1022,6 hPa1019,8 hPa
15:48
1024,9 hPa
02:23
2,0 km/h
W-NW
16,8 km/h
11:38  
---
63 %38 %
15:53
84 %
09:28
46,7 klux92,8 klux
13:13
9:30 Std 
5.
April
8,6 C1,5 C
07:09
15,6 C
14:29
1023,1 hPa1020,6 hPa
17:09
1025,2 hPa
08:29
8,7 km/h
NW
33,4 km/h
16:14  
---
65 %48 %
14:49
81 %
08:59
36,3 klux100,0 klux
13:54
5:40 Std 
6.
April
8,5 C4,4 C
04:00
16,1 C
16:35
1024,9 hPa1023,4 hPa
00:00
1026,6 hPa
22:56
10,5 km/h
NW
26,5 km/h
14:00  
---
61 %42 %
16:40
75 %
07:10
42 klux113 klux
12:45
7:40 Std 
7.
April
7,9 C3,0 C
07:16
11,9 C
15:26
1024,2 hPa1022,8 hPa
15:26
1026,7 hPa
00:56
7,7 km/h
NW
26,1 km/h
17:36  
---
69 %61 %
15:41
79 %
07:56
19 klux49 klux
14:26
15 Min 
8.
April
12,4 C7,2 C
23:53
20,4 C
17:22
1022,9 hPa1020,8 hPa
17:22
1024,3 hPa
07:07
2,5 km/h
SO
16,2 km/h
18:32  
---
65 %44 %
17:52
78 %
08:52
37,9 klux105,0 klux
13:47
6:25 Std 
9.
April
12,8 C1,9 C
07:13
25,2 C
17:03
1022,1 hPa1018,4 hPa
18:38
1025,2 hPa
07:43
2,0 km/h
NW
13,9 km/h
19:23  
---
62 %37 %
16:38
84 %
09:03
50 klux88 klux
13:33
11:35 Std 
10.
April
10,8 C4,9 C
07:14
17,0 C
13:14
1018,5 hPa1016,2 hPa
10:14
1022,4 hPa
23:57
10,3 km/h
NW
36,4 km/h
14:04  
---
64 %52 %
15:44
78 %
08:34
40,9 klux98,9 klux
15:24
8:25 Std 
11.
April
7,8 C3,5 C
06:27
13,8 C
15:57
1024,3 hPa1022,4 hPa
00:02
1026,6 hPa
10:12
4,6 km/h
NW
19,1 km/h
16:57  
---
63 %47 %
16:57
77 %
07:47
37,7 klux118,0 klux
13:47
6:02 Std 
12.
April
10,5 C4,4 C
05:58
16,6 C
16:03
1016,4 hPa1011,0 hPa
17:28
1023,8 hPa
00:18
16,0 km/h
W
37,9 km/h
15:28  
---
20 Minuten
60 %48 %
16:03
74 %
23:54
35 klux113 klux
11:53
4:20 Std 
13.
April
9,8 C6,7 C
23:55
13,6 C
16:54
1013,5 hPa1011,9 hPa
04:19
1015,2 hPa
23:55
14,3 km/h
NW
33,2 km/h
12:29  
0,6 l/m
1:40 Stunden
68 %52 %
16:54
86 %
08:34
33 klux114 klux
12:29
4:00 Std 
14.
April
8,8 C0,7 C
06:05
16,4 C
14:25
1015,3 hPa1013,0 hPa
18:35
1017,8 hPa
08:40
3,0 km/h
NW
23,1 km/h
14:25  
---
62 %43 %
14:25
82 %
08:35
47 klux108 klux
14:05
8:50 Std 
15.
April
8,2 C5,2 C
23:52
11,7 C
13:51
1014,4 hPa1012,8 hPa
10:06
1017,5 hPa
23:52
10,9 km/h
W
34,2 km/h
10:56  
2,9 l/m
4:40 Stunden
74 %60 %
00:01
87 %
16:46
18 klux82 klux
13:46
40 Min 
16.
April
5,6 C1,4 C
03:22
9,8 C
13:22
1018,3 hPa1017,5 hPa
00:02
1019,6 hPa
23:58
8,6 km/h
W
35,9 km/h
14:17  
0,5 l/m
4:10 Stunden
76 %65 %
14:17
84 %
04:17
22,9 klux99,2 klux
13:17
1:15 Std 
17.
April
4,6 C2,1 C
09:48
9,4 C
17:33
1016,6 hPa1013,6 hPa
09:03
1019,7 hPa
00:43
2,1 km/h
NW
39,8 km/h
16:33  
11,7 l/m
9:20 Stunden
80 %67 %
18:33
88 %
11:53
20 klux111 klux
15:28
1:45 Std 
18.
April
4,5 C1,5 C
04:14
12,2 C
16:54
1022,9 hPa1018,7 hPa
00:04
1029,3 hPa
23:50
8,7 km/h
NW
33,0 km/h
12:39  
0,9 l/m
3:45 Stunden
74 %50 %
17:09
87 %
04:59
31 klux111 klux
14:29
4:25 Std 
19.
April
2,7 C-1,9 C
06:40
9,0 C
16:40
1032,2 hPa1029,3 hPa
00:00
1035,9 hPa
23:56
3,0 km/h
NO
26,5 km/h
11:25  
---
10 Minuten
67 %45 %
17:55
85 %
07:15
37 klux115 klux
14:05
5:55 Std 
20.
April
4,6 C-4,6 C
06:56
13,8 C
17:21
1034,4 hPa1030,9 hPa
18:01
1037,4 hPa
07:51
4,1 km/h
W-NW
20,6 km/h
15:11  
---
58 %38 %
14:51
80 %
08:21
52 klux93 klux
13:56
12:20 Std 
21.
April
7,3 C-0,6 C
07:02
12,4 C
16:37
1029,2 hPa1025,0 hPa
19:42
1033,2 hPa
01:27
8,8 km/h
W
25,7 km/h
11:22  
---
61 %46 %
11:17
75 %
08:17
31,7 klux107,0 klux
11:22
4:50 Std 
22.
April
7,9 C4,6 C
23:58
10,4 C
00:02
1023,1 hPa1022,0 hPa
17:32
1025,1 hPa
00:37
15,3 km/h
NW
35,1 km/h
15:47  
0,2 l/m
50 Minuten
70 %56 %
17:28
82 %
09:22
15 klux101 klux
14:27
35 Min 
23.
April
5,5 C0,1 C
06:53
10,9 C
16:43
1023,9 hPa1023,0 hPa
16:43
1025,3 hPa
07:48
8,1 km/h
NW
30,8 km/h
14:18  
---
64 %48 %
16:48
79 %
07:43
28 klux117 klux
14:13
3:25 Std 
24.
April
8,5 C-1,4 C
06:44
17,7 C
16:34
1015,4 hPa1006,8 hPa
23:50
1023,7 hPa
00:24
6,5 km/h
W
28,1 km/h
14:49  
---
58 %36 %
17:29
81 %
08:29
51 klux96 klux
13:34
11:25 Std 
25.
April
6,6 C3,2 C
04:15
11,0 C
17:15
1007,2 hPa1003,9 hPa
06:05
1010,1 hPa
21:50
12,1 km/h
W-NW
35,6 km/h
07:20  
0,2 l/m
3:15 Stunden
63 %43 %
17:15
82 %
09:35
28,6 klux78,6 klux
13:45
3:10 Std 
26.
April
6,2 C0,9 C
06:40
11,8 C
13:05
1010,8 hPa1009,3 hPa
00:00
1013,5 hPa
23:56
4,5 km/h
NW
20,2 km/h
13:05  
---
58 %37 %
16:55
78 %
08:05
36,3 klux109,0 klux
13:35
4:55 Std 
27.
April
6,1 C-1,2 C
06:46
13,9 C
18:06
1014,0 hPa1012,2 hPa
18:06
1016,1 hPa
08:21
4,4 km/h
NW
23,8 km/h
17:51  
---
57 %36 %
18:16
77 %
08:26
39 klux110 klux
14:06
7:00 Std 
28.
April
5,7 C-2,3 C
06:12
14,3 C
15:32
1013,9 hPa1011,3 hPa
14:12
1015,4 hPa
23:57
7,4 km/h
W
33,9 km/h
15:27  
---
59 %40 %
15:22
73 %
08:32
43 klux115 klux
13:37
7:45 Std 
29.
April
8,1 C0,9 C
06:32
16,9 C
17:52
1016,5 hPa1014,2 hPa
19:07
1018,2 hPa
09:57
5,4 km/h
NW
40,2 km/h
14:32  
---
60 %37 %
17:17
82 %
08:07
51 klux113 klux
13:27
11:20 Std 
30.
April
10,0 C-1,0 C
05:48
19,4 C
15:33
1011,7 hPa1005,5 hPa
18:43
1017,1 hPa
04:08
11,8 km/h
O-SO
40,1 km/h
12:03  
---
53 %35 %
15:43
77 %
08:13
53 klux109 klux
12:58
12:40 Std 



April
2017

Temperatur

  

Luftdruck

  

Wind

  

Regen

  

Luftfeuchte

  

Helligkeit

Sonnen-
schein

Min

Max

Min

Max

Max

Max

Min

Max

Max

Max

8,2 C

-4,6 C

06:56 Uhr
20.04.2017

25,2 C

17:03 Uhr
09.04.2017

1019,5 hPa

1003,9 hPa

06:05 Uhr
25.04.2017

1037,4 hPa

07:51 Uhr
20.04.2017

7,0 km/h

NW

40,2 km/h

14:32 Uhr
29.04.2017

11,7 l/m

9:20 Stunden
17.04.2017

64 %

35 %

15:43 Uhr
30.04.2017

88 %

11:53 Uhr
17.04.2017

37 klux

118,0 klux

13:47 Uhr
11.04.2017

12:40 Std

am
30.04.2017

Gesamt

Gesamt

16,9 l/m

9 Tage
28:10 h

183:22 Std


Wetter-Diagramme April 2017     Heinzenberg / Taunus   
TemperaturLuftfeuchte
SolarstrahlungLuftdruck
HelligkeitSonnenschein
RegenmengeRegendauer
Wind-GeschwindigkeitWind-Richtung